GMA01 EGPF-EGGW

Flight info

Callsign GMA01
Flight time 1h 5m
Altitude 25000
Route LUSIV L612 VAMEB/N0276F230 L612 LISTO
Aircraft BE20/L-SBGRY/S

Departure

Time 2026-05-05 21:41
Airport Glasgow Airport (EGPF)

Arrival

Time 2026-05-05 22:46
Airport London Luton Airport (EGGW)
Time Latitude Longitude Altitude Speed Heading
2026-05-05 21:32 55.87241 -4.42514 27 ft 0 kts 289°
2026-05-05 21:37 55.87245 -4.42533 27 ft 0 kts 289°
2026-05-05 21:37 55.87240 -4.42549 27 ft 8 kts 212°
2026-05-05 21:37 55.87232 -4.42684 27 ft 11 kts 253°
2026-05-05 21:38 55.87116 -4.42775 27 ft 22 kts 201°
2026-05-05 21:38 55.86991 -4.42857 27 ft 21 kts 200°
2026-05-05 21:38 55.86875 -4.42958 27 ft 16 kts 202°
2026-05-05 21:38 55.86832 -4.43128 27 ft 21 kts 257°
2026-05-05 21:39 55.86820 -4.43197 27 ft 22 kts 254°
2026-05-05 21:39 55.86779 -4.43454 27 ft 22 kts 253°
2026-05-05 21:39 55.86750 -4.43629 27 ft 15 kts 254°
2026-05-05 21:39 55.86748 -4.43778 27 ft 17 kts 324°
2026-05-05 21:40 55.86865 -4.43722 27 ft 24 kts 17°
2026-05-05 21:40 55.86993 -4.43647 27 ft 17 kts
2026-05-05 21:40 55.87063 -4.43573 27 ft 20 kts 46°
2026-05-05 21:41 55.87294 -4.43142 27 ft 83 kts 47°
2026-05-05 21:41 55.87785 -4.42211 243 ft 113 kts 44°
2026-05-05 21:41 55.88376 -4.41211 822 ft 119 kts 41°
2026-05-05 21:41 55.88964 -4.40029 1229 ft 143 kts 53°
2026-05-05 21:42 55.89662 -4.38567 1655 ft 162 kts 53°
2026-05-05 21:42 55.90391 -4.37108 2471 ft 151 kts 52°
2026-05-05 21:42 55.91115 -4.35794 3178 ft 153 kts 49°
2026-05-05 21:42 55.91536 -4.34153 3903 ft 145 kts 94°
2026-05-05 21:43 55.91125 -4.32501 4602 ft 148 kts 124°
2026-05-05 21:43 55.90234 -4.31561 5206 ft 161 kts 167°
2026-05-05 21:43 55.89110 -4.31195 5956 ft 159 kts 169°
2026-05-05 21:43 55.87979 -4.30803 6511 ft 174 kts 171°
2026-05-05 21:44 55.86779 -4.30401 7149 ft 173 kts 175°
2026-05-05 21:44 55.85595 -4.30170 7897 ft 172 kts 174°
2026-05-05 21:44 55.84401 -4.29831 8555 ft 176 kts 173°
2026-05-05 21:44 55.83185 -4.29456 9237 ft 179 kts 173°
2026-05-05 21:45 55.81946 -4.29075 9932 ft 183 kts 174°
2026-05-05 21:45 55.80683 -4.28690 10589 ft 185 kts 174°
2026-05-05 21:45 55.79413 -4.28303 11280 ft 186 kts 174°
2026-05-05 21:45 55.78144 -4.27917 12011 ft 186 kts 174°
2026-05-05 21:46 55.76869 -4.27528 12762 ft 185 kts 174°
2026-05-05 21:46 55.75628 -4.26917 13477 ft 188 kts 155°
2026-05-05 21:46 55.74475 -4.25772 14153 ft 191 kts 154°
2026-05-05 21:46 55.73305 -4.24695 14855 ft 189 kts 158°
2026-05-05 21:47 55.72121 -4.23689 15490 ft 188 kts 159°
2026-05-05 21:47 55.70933 -4.22690 16083 ft 191 kts 159°
2026-05-05 21:47 55.69747 -4.21684 16815 ft 189 kts 159°
2026-05-05 21:47 55.68562 -4.20681 17529 ft 188 kts 159°
2026-05-05 21:48 55.67373 -4.19676 18233 ft 189 kts 160°
2026-05-05 21:48 55.66190 -4.18674 18884 ft 189 kts 160°
2026-05-05 21:48 55.65010 -4.17677 19510 ft 188 kts 160°
2026-05-05 21:48 55.63829 -4.16680 20110 ft 189 kts 160°
2026-05-05 21:49 55.62650 -4.15686 20739 ft 187 kts 160°
2026-05-05 21:49 55.61472 -4.14693 21343 ft 187 kts 160°
2026-05-05 21:49 55.60296 -4.13702 21970 ft 187 kts 160°
2026-05-05 21:49 55.59120 -4.12711 22607 ft 186 kts 160°
2026-05-05 21:50 55.57948 -4.11726 23206 ft 187 kts 160°
2026-05-05 21:50 55.56778 -4.10741 23808 ft 186 kts 161°
2026-05-05 21:50 55.55604 -4.09756 24300 ft 186 kts 161°
2026-05-05 21:50 55.54435 -4.08773 24790 ft 186 kts 161°
2026-05-05 21:51 55.53212 -4.07758 24984 ft 208 kts 161°
2026-05-05 21:51 55.51817 -4.06605 25005 ft 235 kts 160°
2026-05-05 21:51 55.50264 -4.05303 25004 ft 258 kts 159°
2026-05-05 21:51 55.48589 -4.03893 25001 ft 274 kts 159°
2026-05-05 21:52 55.45015 -4.00900 24982 ft 292 kts 159°
2026-05-05 21:52 55.43165 -3.99356 24990 ft 297 kts 159°
2026-05-05 21:52 55.41287 -3.97790 24987 ft 300 kts 159°
2026-05-05 21:53 55.40013 -3.96728 24989 ft 301 kts 159°
2026-05-05 21:53 55.38113 -3.95147 24991 ft 303 kts 159°
2026-05-05 21:53 55.36209 -3.93564 24991 ft 303 kts 159°
2026-05-05 21:53 55.34300 -3.91978 24991 ft 304 kts 159°
2026-05-05 21:54 55.32416 -3.90415 24988 ft 304 kts 159°
2026-05-05 21:54 55.30470 -3.88803 24986 ft 304 kts 159°
2026-05-05 21:54 55.28557 -3.87219 24988 ft 305 kts 159°
2026-05-05 21:54 55.26636 -3.85630 24985 ft 305 kts 159°
2026-05-05 21:55 55.24745 -3.84068 24988 ft 305 kts 159°
2026-05-05 21:55 55.22823 -3.82482 24987 ft 305 kts 159°
2026-05-05 21:55 55.20880 -3.80880 24988 ft 305 kts 159°
2026-05-05 21:55 55.18968 -3.79306 24970 ft 304 kts 159°
2026-05-05 21:56 55.17052 -3.77730 24967 ft 304 kts 159°
2026-05-05 21:56 55.15132 -3.76153 24968 ft 304 kts 159°
2026-05-05 21:56 55.13218 -3.74582 24968 ft 304 kts 159°
2026-05-05 21:56 55.11298 -3.73008 24968 ft 304 kts 159°
2026-05-05 21:57 55.09380 -3.71437 24964 ft 304 kts 159°
2026-05-05 21:57 55.07462 -3.69868 24964 ft 304 kts 159°
2026-05-05 21:57 55.05547 -3.68303 24965 ft 304 kts 159°
2026-05-05 21:57 55.03629 -3.66737 24963 ft 304 kts 159°
2026-05-05 21:58 55.01711 -3.65173 24961 ft 304 kts 159°
2026-05-05 21:58 54.99797 -3.63614 24959 ft 304 kts 159°
2026-05-05 21:58 54.97891 -3.62063 24959 ft 304 kts 159°
2026-05-05 21:58 54.95972 -3.60503 24959 ft 304 kts 159°
2026-05-05 21:59 54.94060 -3.58950 24962 ft 303 kts 159°
2026-05-05 21:59 54.92147 -3.57397 24961 ft 303 kts 159°
2026-05-05 21:59 54.90237 -3.55851 24956 ft 303 kts 159°
2026-05-05 21:59 54.88324 -3.54302 24956 ft 304 kts 159°
2026-05-05 22:00 54.86410 -3.52754 24955 ft 304 kts 159°
2026-05-05 22:00 54.84493 -3.51205 24956 ft 304 kts 159°
2026-05-05 22:00 54.82578 -3.49660 24956 ft 304 kts 159°
2026-05-05 22:00 54.80662 -3.48116 24956 ft 304 kts 159°
2026-05-05 22:01 54.78748 -3.46574 24951 ft 304 kts 159°
2026-05-05 22:01 54.76829 -3.45031 24951 ft 304 kts 159°
2026-05-05 22:01 54.74919 -3.43496 24951 ft 304 kts 159°
2026-05-05 22:01 54.72997 -3.41953 24951 ft 304 kts 159°
2026-05-05 22:02 54.71082 -3.40418 24952 ft 304 kts 159°
2026-05-05 22:02 54.69166 -3.38882 24947 ft 303 kts 159°
2026-05-05 22:02 54.67251 -3.37350 24947 ft 303 kts 159°
2026-05-05 22:02 54.65310 -3.35791 24946 ft 303 kts 158°
2026-05-05 22:03 54.63398 -3.34264 24946 ft 303 kts 159°
2026-05-05 22:03 54.61510 -3.32773 24945 ft 303 kts 159°
2026-05-05 22:03 54.59572 -3.31233 24938 ft 303 kts 159°
2026-05-05 22:03 54.57662 -3.29700 24942 ft 303 kts 159°
2026-05-05 22:04 54.55747 -3.28174 24942 ft 304 kts 159°
2026-05-05 22:04 54.53851 -3.26671 24941 ft 304 kts 159°
2026-05-05 22:04 54.51907 -3.25130 24941 ft 304 kts 159°
2026-05-05 22:04 54.49992 -3.23611 24939 ft 303 kts 159°
2026-05-05 22:05 54.48074 -3.22092 24937 ft 303 kts 159°
2026-05-05 22:05 54.46156 -3.20574 24942 ft 304 kts 159°
2026-05-05 22:05 54.44238 -3.19059 24950 ft 303 kts 159°
2026-05-05 22:05 54.42319 -3.17544 24947 ft 304 kts 159°
2026-05-05 22:06 54.40399 -3.16030 24949 ft 304 kts 159°
2026-05-05 22:06 54.38480 -3.14518 24950 ft 304 kts 159°
2026-05-05 22:06 54.36552 -3.13001 24945 ft 304 kts 159°
2026-05-05 22:06 54.34630 -3.11490 24948 ft 304 kts 159°
2026-05-05 22:07 54.32709 -3.09981 24946 ft 304 kts 159°
2026-05-05 22:07 54.30791 -3.08475 24944 ft 304 kts 159°
2026-05-05 22:07 54.28868 -3.06968 24943 ft 304 kts 159°
2026-05-05 22:07 54.26944 -3.05462 24946 ft 304 kts 159°
2026-05-05 22:08 54.25020 -3.03957 24942 ft 304 kts 159°
2026-05-05 22:08 54.23094 -3.02453 24944 ft 304 kts 159°
2026-05-05 22:08 54.21169 -3.00950 24942 ft 304 kts 159°
2026-05-05 22:08 54.19244 -2.99448 24934 ft 304 kts 159°
2026-05-05 22:09 54.17327 -2.97955 24937 ft 304 kts 159°
2026-05-05 22:09 54.15402 -2.96458 24935 ft 304 kts 159°
2026-05-05 22:09 54.13477 -2.94961 24939 ft 304 kts 159°
2026-05-05 22:09 54.11557 -2.93470 24940 ft 304 kts 159°
2026-05-05 22:10 54.09630 -2.91975 24935 ft 304 kts 159°
2026-05-05 22:10 54.07705 -2.90483 24936 ft 304 kts 159°
2026-05-05 22:10 54.05778 -2.88992 24936 ft 304 kts 159°
2026-05-05 22:10 54.03855 -2.87504 24935 ft 304 kts 159°
2026-05-05 22:11 54.01928 -2.86015 24936 ft 304 kts 159°
2026-05-05 22:11 54.00000 -2.84528 24933 ft 304 kts 159°
2026-05-05 22:11 53.98077 -2.83045 24936 ft 304 kts 159°
2026-05-05 22:11 53.96149 -2.81559 24923 ft 304 kts 159°
2026-05-05 22:12 53.94220 -2.80076 24931 ft 304 kts 159°
2026-05-05 22:12 53.92298 -2.78598 24931 ft 304 kts 159°
2026-05-05 22:12 53.90375 -2.77122 24928 ft 304 kts 159°
2026-05-05 22:12 53.88447 -2.75643 24929 ft 304 kts 159°
2026-05-05 22:13 53.86524 -2.74169 24929 ft 304 kts 159°
2026-05-05 22:13 53.84595 -2.72693 24929 ft 304 kts 159°
2026-05-05 22:13 53.82673 -2.71215 24928 ft 304 kts 159°
2026-05-05 22:13 53.80747 -2.69749 24926 ft 303 kts 159°
2026-05-05 22:14 53.78826 -2.68288 24925 ft 303 kts 159°
2026-05-05 22:14 53.76901 -2.66825 24925 ft 303 kts 159°
2026-05-05 22:14 53.74977 -2.65352 24926 ft 304 kts 159°
2026-05-05 22:14 53.73051 -2.63883 24925 ft 304 kts 159°
2026-05-05 22:15 53.71127 -2.62423 24919 ft 304 kts 159°
2026-05-05 22:15 53.69204 -2.60963 24925 ft 303 kts 160°
2026-05-05 22:15 53.67279 -2.59503 24925 ft 302 kts 160°
2026-05-05 22:15 53.65362 -2.58050 24927 ft 301 kts 160°
2026-05-05 22:16 53.63454 -2.56605 24926 ft 301 kts 160°
2026-05-05 22:16 53.61540 -2.55157 24928 ft 301 kts 160°
2026-05-05 22:16 53.59626 -2.53711 24927 ft 301 kts 160°
2026-05-05 22:16 53.57720 -2.52273 24925 ft 301 kts 160°
2026-05-05 22:17 53.55811 -2.50833 24924 ft 300 kts 160°
2026-05-05 22:17 53.53904 -2.49396 24926 ft 300 kts 160°
2026-05-05 22:17 53.51997 -2.47961 24922 ft 300 kts 160°
2026-05-05 22:17 53.50090 -2.46527 24921 ft 300 kts 160°
2026-05-05 22:18 53.48182 -2.45094 24923 ft 300 kts 160°
2026-05-05 22:18 53.46277 -2.43665 24924 ft 300 kts 160°
2026-05-05 22:18 53.44369 -2.42235 24923 ft 300 kts 160°
2026-05-05 22:18 53.42465 -2.40809 24913 ft 300 kts 160°
2026-05-05 22:19 53.40560 -2.39383 24913 ft 300 kts 160°
2026-05-05 22:19 53.38629 -2.37940 24913 ft 300 kts 160°
2026-05-05 22:19 53.36745 -2.36534 24913 ft 300 kts 160°
2026-05-05 22:19 53.34842 -2.35114 24914 ft 300 kts 160°
2026-05-05 22:20 53.32929 -2.33603 24914 ft 301 kts 156°
2026-05-05 22:20 53.31140 -2.31844 24914 ft 302 kts 152°
2026-05-05 22:20 53.29368 -2.29959 24915 ft 302 kts 152°
2026-05-05 22:20 53.27569 -2.28143 24914 ft 302 kts 153°
2026-05-05 22:21 53.25754 -2.26378 24915 ft 302 kts 154°
2026-05-05 22:21 53.23946 -2.24600 24914 ft 302 kts 153°
2026-05-05 22:21 53.22116 -2.22777 24913 ft 302 kts 153°
2026-05-05 22:21 53.20311 -2.20982 24913 ft 302 kts 153°
2026-05-05 22:22 53.18500 -2.19192 24912 ft 302 kts 153°
2026-05-05 22:22 53.16719 -2.17436 24912 ft 302 kts 153°
2026-05-05 22:22 53.14888 -2.15629 24912 ft 302 kts 153°
2026-05-05 22:22 53.13114 -2.13752 24912 ft 303 kts 148°
2026-05-05 22:23 53.11423 -2.11653 24911 ft 303 kts 146°
2026-05-05 22:23 53.09728 -2.09568 24911 ft 303 kts 148°
2026-05-05 22:23 53.07995 -2.07559 24911 ft 303 kts 149°
2026-05-05 22:23 53.06265 -2.05568 24912 ft 303 kts 148°
2026-05-05 22:24 53.04539 -2.03547 24909 ft 304 kts 148°
2026-05-05 22:24 53.02813 -2.01514 24907 ft 303 kts 148°
2026-05-05 22:24 53.01095 -1.99506 24907 ft 303 kts 148°
2026-05-05 22:24 52.99372 -1.97499 24908 ft 302 kts 148°
2026-05-05 22:25 52.97648 -1.95491 24911 ft 302 kts 147°
2026-05-05 22:25 52.95929 -1.93487 24907 ft 302 kts 147°
2026-05-05 22:25 52.94210 -1.91486 24907 ft 302 kts 148°
2026-05-05 22:25 52.92488 -1.89485 24900 ft 302 kts 148°
2026-05-05 22:26 52.90766 -1.87485 24907 ft 302 kts 148°
2026-05-05 22:26 52.89043 -1.85486 24907 ft 302 kts 148°
2026-05-05 22:26 52.87317 -1.83486 24787 ft 304 kts 148°
2026-05-05 22:26 52.85580 -1.81476 24421 ft 305 kts 148°
2026-05-05 22:27 52.83841 -1.79463 24071 ft 306 kts 148°
2026-05-05 22:27 52.82096 -1.77446 23721 ft 306 kts 148°
2026-05-05 22:27 52.80350 -1.75431 23326 ft 306 kts 148°
2026-05-05 22:27 52.78602 -1.73415 22915 ft 307 kts 148°
2026-05-05 22:28 52.76849 -1.71396 22508 ft 307 kts 148°
2026-05-05 22:28 52.75101 -1.69384 22095 ft 306 kts 148°
2026-05-05 22:28 52.73356 -1.67377 21685 ft 306 kts 148°
2026-05-05 22:28 52.71611 -1.65373 21293 ft 305 kts 148°
2026-05-05 22:29 52.69876 -1.63382 20906 ft 304 kts 148°
2026-05-05 22:29 52.68141 -1.61393 20523 ft 304 kts 148°
2026-05-05 22:29 52.66991 -1.60075 20273 ft 303 kts 147°
2026-05-05 22:29 52.65264 -1.58099 19899 ft 302 kts 147°
2026-05-05 22:30 52.63536 -1.56124 19527 ft 302 kts 147°
2026-05-05 22:30 52.61813 -1.54155 19158 ft 301 kts 147°
2026-05-05 22:30 52.60095 -1.52194 18802 ft 300 kts 147°
2026-05-05 22:30 52.58382 -1.50241 18446 ft 300 kts 147°
2026-05-05 22:31 52.56672 -1.48294 18059 ft 298 kts 147°
2026-05-05 22:31 52.54967 -1.46354 17653 ft 298 kts 147°
2026-05-05 22:31 52.53266 -1.44420 17255 ft 297 kts 147°
2026-05-05 22:31 52.51567 -1.42490 16861 ft 297 kts 148°
2026-05-05 22:32 52.49847 -1.40538 16460 ft 297 kts 148°
2026-05-05 22:32 52.48171 -1.38639 16083 ft 296 kts 148°
2026-05-05 22:32 52.46478 -1.36722 15703 ft 297 kts 148°
2026-05-05 22:32 52.44754 -1.34772 15324 ft 296 kts 147°
2026-05-05 22:33 52.43080 -1.32879 14959 ft 295 kts 147°
2026-05-05 22:33 52.41390 -1.30970 14594 ft 296 kts 147°
2026-05-05 22:33 52.39662 -1.29022 14228 ft 299 kts 147°
2026-05-05 22:33 52.37938 -1.27079 13872 ft 303 kts 147°
2026-05-05 22:34 52.36192 -1.25114 13477 ft 305 kts 146°
2026-05-05 22:34 52.34471 -1.23177 13087 ft 304 kts 146°
2026-05-05 22:34 52.32707 -1.21194 12691 ft 303 kts 146°
2026-05-05 22:34 52.30973 -1.19248 12295 ft 302 kts 146°
2026-05-05 22:35 52.29265 -1.17332 11921 ft 301 kts 146°
2026-05-05 22:35 52.27522 -1.15379 11531 ft 299 kts 146°
2026-05-05 22:35 52.25807 -1.13459 11154 ft 299 kts 146°
2026-05-05 22:35 52.24116 -1.11568 10789 ft 299 kts 145°
2026-05-05 22:36 52.22387 -1.09636 10420 ft 297 kts 145°
2026-05-05 22:36 52.20678 -1.07728 10057 ft 297 kts 145°
2026-05-05 22:36 52.19004 -1.05862 9675 ft 294 kts 145°
2026-05-05 22:36 52.17298 -1.03962 9268 ft 293 kts 145°
2026-05-05 22:37 52.15624 -1.02098 8872 ft 289 kts 145°
2026-05-05 22:37 52.13968 -1.00257 8478 ft 288 kts 145°
2026-05-05 22:37 52.12319 -0.98424 8090 ft 287 kts 145°
2026-05-05 22:37 52.10696 -0.96623 7711 ft 285 kts 145°
2026-05-05 22:38 52.09040 -0.94787 7330 ft 284 kts 145°
2026-05-05 22:38 52.07414 -0.92984 6948 ft 283 kts 145°
2026-05-05 22:38 52.05789 -0.91186 6571 ft 282 kts 145°
2026-05-05 22:38 52.04168 -0.89392 6197 ft 281 kts 143°
2026-05-05 22:39 52.02560 -0.87617 5810 ft 279 kts 143°
2026-05-05 22:39 52.00964 -0.85855 5419 ft 276 kts 143°
2026-05-05 22:39 51.99386 -0.84114 5031 ft 273 kts 143°
2026-05-05 22:39 51.97821 -0.82389 4647 ft 270 kts 144°
2026-05-05 22:40 51.96277 -0.80689 4252 ft 267 kts 143°
2026-05-05 22:40 51.94775 -0.79039 4196 ft 254 kts 144°
2026-05-05 22:40 51.93335 -0.77454 4189 ft 248 kts 143°
2026-05-05 22:40 51.91912 -0.75887 4106 ft 249 kts 143°
2026-05-05 22:41 51.90453 -0.74284 3723 ft 257 kts 143°
2026-05-05 22:41 51.89094 -0.72482 3327 ft 251 kts 125°
2026-05-05 22:41 51.88427 -0.69945 2953 ft 245 kts 96°
2026-05-05 22:41 51.88639 -0.67269 2577 ft 241 kts 66°
2026-05-05 22:42 51.89034 -0.64763 2468 ft 225 kts 89°
2026-05-05 22:42 51.88529 -0.62398 2434 ft 229 kts 121°
2026-05-05 22:42 51.87545 -0.60497 2826 ft 211 kts 126°
2026-05-05 22:42 51.86632 -0.58585 2707 ft 222 kts 124°
2026-05-05 22:43 51.85715 -0.56560 2709 ft 222 kts 120°
2026-05-05 22:43 51.84953 -0.54385 2604 ft 224 kts 111°
2026-05-05 22:43 51.84677 -0.52081 2341 ft 196 kts 82°
2026-05-05 22:43 51.85032 -0.50112 2085 ft 174 kts 65°
2026-05-05 22:44 51.85466 -0.48367 1838 ft 159 kts 71°
2026-05-05 22:44 51.85750 -0.46764 1658 ft 134 kts 72°
2026-05-05 22:44 51.85973 -0.45453 1488 ft 102 kts 70°
2026-05-05 22:44 51.86132 -0.44438 1317 ft 92 kts 69°
2026-05-05 22:45 51.86336 -0.43340 1262 ft 111 kts 72°
2026-05-05 22:45 51.86538 -0.42115 1133 ft 111 kts 71°
2026-05-05 22:45 51.86737 -0.40979 922 ft 97 kts 69°
2026-05-05 22:45 51.86908 -0.40013 793 ft 85 kts 68°
2026-05-05 22:46 51.87079 -0.39052 661 ft 98 kts 69°
2026-05-05 22:46 51.87266 -0.37974 533 ft 96 kts 69°
2026-05-05 22:46 51.87433 -0.37036 519 ft 73 kts 72°
2026-05-05 22:46 51.87477 -0.36763 520 ft 1 kts 88°
2026-05-05 22:47 51.87473 -0.36800 519 ft 15 kts 240°
2026-05-05 22:47 51.87562 -0.36959 520 ft 17 kts 326°
2026-05-05 22:47 51.87591 -0.37187 517 ft 22 kts 257°
2026-05-05 22:47 51.87583 -0.37370 517 ft 21 kts 285°
2026-05-05 22:48 51.87682 -0.37524 516 ft 24 kts 304°
2026-05-05 22:48 51.87748 -0.37743 519 ft 17 kts 289°
2026-05-05 22:48 51.87719 -0.37829 519 ft 7 kts 242°
2026-05-05 22:48 51.87717 -0.37833 519 ft 0 kts 246°